| time (UTC) | temp F | wind direction | speed MPH | gust MPH | rain 1hr in | rain 24hr in | rain mn in | humidity % | barometer mb |
| 20260510030617 | 51 | 92 | 0.0 | 0.0 | 0.00 | 0.10 | 0.10 | 92 | 1010.4 |
| 20260510030113 | 51 | 92 | 0.0 | 0.0 | 0.00 | 0.10 | 0.10 | 92 | 1010.5 |
| 20260510030055 | 51 | 92 | 0.0 | 0.0 | 0.00 | 0.10 | 0.10 | 92 | 1010.4 |
| 20260510025320 | 51 | 92 | 0.0 | 0.0 | 0.00 | 0.10 | 0.10 | 92 | 1010.4 |
| 20260510024550 | 52 | 92 | 0.0 | 0.0 | 0.00 | 0.10 | 0.10 | 92 | 1010.2 |
| 20260510024043 | 52 | 92 | 0.0 | 0.0 | 0.00 | 0.10 | 0.10 | 92 | 1010.2 |
| 20260510023537 | 52 | 92 | 0.0 | 0.0 | 0.00 | 0.10 | 0.10 | 91 | 1010.2 |
| 20260510023029 | 52 | 92 | 0.0 | 1.0 | 0.00 | 0.10 | 0.10 | 91 | 1010.1 |
| 20260510022525 | 52 | 92 | 0.0 | 1.0 | 0.00 | 0.10 | 0.10 | 91 | 1010.2 |
| 20260510022241 | 53 | 92 | 0.0 | 0.0 | 0.00 | 0.10 | 0.10 | 91 | 1010.4 |
| 20260510021738 | 53 | 92 | 0.0 | 0.0 | 0.00 | 0.10 | 0.10 | 91 | 1010.3 |
| 20260510021019 | 53 | 92 | 0.0 | 1.0 | 0.00 | 0.10 | 0.10 | 91 | 1010.3 |
| 20260510020500 | 53 | 92 | 0.0 | 1.0 | 0.00 | 0.10 | 0.10 | 91 | 1010.2 |
| 20260510015955 | 53 | 92 | 0.0 | 1.0 | 0.00 | 0.10 | 0.10 | 91 | 1010.2 |
| 20260510015455 | 53 | 92 | 0.0 | 1.0 | 0.00 | 0.10 | 0.10 | 91 | 1010.1 |
| 20260510015215 | 54 | 92 | 0.0 | 1.0 | 0.00 | 0.10 | 0.10 | 91 | 1010.1 |
| 20260510014717 | 54 | 92 | 0.0 | 1.0 | 0.00 | 0.10 | 0.10 | 91 | 1010.0 |
| 20260510013954 | 54 | 92 | 0.0 | 2.0 | 0.00 | 0.10 | 0.10 | 91 | 1010.0 |
| 20260510013451 | 54 | 92 | 0.0 | 2.0 | 0.00 | 0.10 | 0.10 | 91 | 1009.9 |
| 20260510012947 | 54 | 92 | 0.0 | 2.0 | 0.00 | 0.10 | 0.10 | 91 | 1009.9 |
| 20260510012450 | 54 | 92 | 0.0 | 3.0 | 0.00 | 0.10 | 0.10 | 90 | 1009.8 |
| 20260510011948 | 54 | 92 | 0.0 | 3.0 | 0.00 | 0.10 | 0.10 | 90 | 1009.8 |
| 20260510011449 | 54 | 92 | 0.0 | 1.0 | 0.00 | 0.10 | 0.10 | 90 | 1009.7 |
| 20260510010949 | 54 | 92 | 0.0 | 2.0 | 0.00 | 0.10 | 0.10 | 90 | 1009.7 |
| 20260510010449 | 55 | 92 | 0.0 | 2.0 | 0.00 | 0.10 | 0.10 | 90 | 1009.6 |
| 20260510005949 | 55 | 92 | 0.0 | 1.0 | 0.00 | 0.10 | 0.10 | 89 | 1009.6 |
| 20260510005448 | 55 | 92 | 0.0 | 0.0 | 0.00 | 0.10 | 0.10 | 90 | 1009.6 |
| 20260510004949 | 55 | 92 | 0.0 | 0.0 | 0.00 | 0.10 | 0.10 | 89 | 1009.5 |
| 20260510004452 | 55 | 92 | 0.0 | 1.0 | 0.00 | 0.10 | 0.10 | 89 | 1009.5 |
| 20260510003944 | 56 | 92 | 0.0 | 1.0 | 0.00 | 0.10 | 0.10 | 89 | 1009.4 |
| 20260510003443 | 56 | 92 | 0.0 | 2.0 | 0.00 | 0.10 | 0.10 | 88 | 1009.5 |
| 20260510002940 | 56 | 92 | 0.0 | 2.0 | 0.00 | 0.10 | 0.10 | 88 | 1009.4 |
| 20260510002439 | 56 | 92 | 0.0 | 3.0 | 0.00 | 0.10 | 0.10 | 88 | 1009.4 |
| 20260510001935 | 57 | 92 | 1.0 | 3.0 | 0.00 | 0.10 | 0.10 | 88 | 1009.3 |
| 20260510001429 | 57 | 93 | 1.0 | 3.0 | 0.00 | 0.10 | 0.10 | 88 | 1009.2 |
| 20260510000924 | 58 | 93 | 1.0 | 4.0 | 0.00 | 0.10 | 0.10 | 87 | 1009.2 |
| 20260510000418 | 58 | 93 | 1.0 | 4.0 | 0.00 | 0.10 | 0.10 | 87 | 1009.1 |
| 20260509235916 | 58 | 92 | 1.0 | 4.0 | 0.00 | 0.10 | 0.10 | 86 | 1009.1 |
| 20260509235415 | 58 | 96 | 1.0 | 3.0 | 0.00 | 0.10 | 0.10 | 86 | 1009.1 |
| 20260509235137 | 59 | 96 | 2.0 | 3.0 | 0.00 | 0.10 | 0.10 | 86 | 1009.1 |
| 20260509234415 | 59 | 96 | 2.0 | 6.0 | 0.00 | 0.10 | 0.10 | 86 | 1009.2 |
| 20260509233915 | 60 | 96 | 3.0 | 7.0 | 0.00 | 0.10 | 0.10 | 85 | 1009.2 |
| 20260509233413 | 60 | 92 | 2.0 | 7.0 | 0.00 | 0.10 | 0.10 | 85 | 1009.2 |
| 20260509233132 | 60 | 104 | 2.0 | 7.0 | 0.00 | 0.10 | 0.10 | 84 | 1009.2 |
| 20260509232414 | 61 | 107 | 1.0 | 3.0 | 0.00 | 0.10 | 0.10 | 84 | 1009.1 |
| 20260509231912 | 61 | 107 | 2.0 | 4.0 | 0.00 | 0.10 | 0.10 | 83 | 1009.1 |
| 20260509231414 | 61 | 107 | 2.0 | 4.0 | 0.00 | 0.10 | 0.10 | 82 | 1009.1 |
| 20260509230910 | 62 | 107 | 2.0 | 7.0 | 0.00 | 0.10 | 0.10 | 82 | 1009.2 |
| 20260509230634 | 62 | 137 | 2.0 | 7.0 | 0.00 | 0.10 | 0.10 | 81 | 1009.2 |
| 20260509225909 | 62 | 135 | 1.0 | 3.0 | 0.00 | 0.10 | 0.10 | 80 | 1009.2 |
| 20260509225413 | 62 | 135 | 1.0 | 3.0 | 0.00 | 0.10 | 0.10 | 78 | 1009.2 |
| 20260509225129 | 62 | 135 | 1.0 | 2.0 | 0.00 | 0.10 | 0.10 | 78 | 1009.2 |
| 20260509224400 | 62 | 135 | 1.0 | 4.0 | 0.00 | 0.10 | 0.10 | 77 | 1009.1 |
| 20260509223857 | 62 | 135 | 2.0 | 4.0 | 0.00 | 0.10 | 0.10 | 75 | 1009.1 |
| 20260509223354 | 63 | 9 | 2.0 | 4.0 | 0.00 | 0.10 | 0.10 | 75 | 1009.1 |
| 20260509222850 | 63 | 9 | 1.0 | 3.0 | 0.00 | 0.10 | 0.10 | 74 | 1009.1 |
| 20260509222350 | 63 | 9 | 1.0 | 3.0 | 0.00 | 0.10 | 0.10 | 75 | 1009.1 |
| 20260509221851 | 64 | 9 | 0.0 | 2.0 | 0.00 | 0.10 | 0.10 | 76 | 1009.1 |
| 20260509221609 | 63 | 9 | 0.0 | 2.0 | 0.00 | 0.10 | 0.10 | 75 | 1009.2 |
| 20260509220850 | 62 | 9 | 0.0 | 0.0 | 0.00 | 0.10 | 0.10 | 75 | 1009.3 |
| 20260509220351 | 62 | 5 | 0.0 | 0.0 | 0.00 | 0.10 | 0.10 | 76 | 1009.2 |
| 20260509220113 | 62 | 5 | 0.0 | 0.0 | 0.00 | 0.10 | 0.10 | 77 | 1009.3 |
| 20260509215350 | 62 | 9 | 0.0 | 0.0 | 0.00 | 0.10 | 0.10 | 76 | 1009.3 |
| 20260509214850 | 62 | 9 | 0.0 | 2.0 | 0.00 | 0.10 | 0.10 | 76 | 1009.3 |
| 20260509214349 | 62 | 5 | 0.0 | 2.0 | 0.00 | 0.10 | 0.10 | 76 | 1009.3 |
| 20260509213846 | 62 | 9 | 0.0 | 2.0 | 0.00 | 0.10 | 0.10 | 75 | 1009.2 |
| 20260509213346 | 62 | 5 | 1.0 | 3.0 | 0.00 | 0.10 | 0.10 | 75 | 1009.2 |
| 20260509212846 | 62 | 9 | 1.0 | 3.0 | 0.00 | 0.10 | 0.10 | 73 | 1009.2 |
| 20260509212612 | 62 | 9 | 2.0 | 5.0 | 0.00 | 0.10 | 0.10 | 73 | 1009.2 |
| 20260509211847 | 63 | 9 | 1.0 | 5.0 | 0.00 | 0.10 | 0.10 | 75 | 1009.3 |
| 20260509211617 | 63 | 342 | 1.0 | 4.0 | 0.00 | 0.10 | 0.10 | 77 | 1009.2 |
| 20260509210847 | 62 | 342 | 1.0 | 4.0 | 0.00 | 0.10 | 0.10 | 79 | 1009.4 |
| 20260509210603 | 61 | 340 | 1.0 | 3.0 | 0.00 | 0.10 | 0.10 | 79 | 1009.4 |
| 20260509205841 | 61 | 340 | 0.0 | 3.0 | 0.00 | 0.10 | 0.10 | 79 | 1009.4 |
| 20260509205343 | 60 | 340 | 0.0 | 2.0 | 0.00 | 0.10 | 0.10 | 78 | 1009.4 |
| 20260509204842 | 61 | 340 | 0.0 | 2.0 | 0.00 | 0.10 | 0.10 | 79 | 1009.5 |
| 20260509204601 | 61 | 340 | 0.0 | 2.0 | 0.00 | 0.10 | 0.10 | 77 | 1009.4 |
| 20260509203842 | 61 | 340 | 1.0 | 2.0 | 0.00 | 0.10 | 0.10 | 75 | 1009.4 |
| 20260509203610 | 60 | 340 | 1.0 | 2.0 | 0.00 | 0.10 | 0.10 | 75 | 1009.3 |
| 20260509202841 | 61 | 340 | 1.0 | 3.0 | 0.00 | 0.10 | 0.10 | 77 | 1009.4 |
| 20260509202601 | 61 | 340 | 1.0 | 4.0 | 0.00 | 0.10 | 0.10 | 77 | 1009.4 |
| 20260509202319 | 61 | 340 | 2.0 | 6.0 | 0.00 | 0.10 | 0.10 | 79 | 1009.4 |
| 20260509201340 | 61 | 341 | 2.0 | 6.0 | 0.00 | 0.10 | 0.10 | 80 | 1009.5 |
| 20260509200832 | 60 | 335 | 2.0 | 5.0 | 0.00 | 0.10 | 0.10 | 79 | 1009.4 |
| 20260509200328 | 60 | 331 | 1.0 | 5.0 | 0.00 | 0.10 | 0.10 | 80 | 1009.5 |
| 20260509195822 | 60 | 5 | 2.0 | 4.0 | 0.00 | 0.10 | 0.10 | 82 | 1009.5 |
| 20260509195316 | 60 | 9 | 1.0 | 3.0 | 0.01 | 0.10 | 0.10 | 82 | 1009.6 |
| 20260509194814 | 59 | 9 | 1.0 | 5.0 | 0.01 | 0.10 | 0.10 | 82 | 1009.5 |
| 20260509194304 | 59 | 9 | 2.0 | 5.0 | 0.01 | 0.10 | 0.10 | 82 | 1009.5 |
| 20260509193759 | 59 | 9 | 2.0 | 5.0 | 0.01 | 0.10 | 0.10 | 83 | 1009.4 |
| 20260509193252 | 59 | 5 | 1.0 | 4.0 | 0.01 | 0.10 | 0.10 | 85 | 1009.5 |
| 20260509193009 | 58 | 5 | 0.0 | 3.0 | 0.01 | 0.10 | 0.10 | 85 | 1009.7 |
| 20260509192238 | 58 | 5 | 0.0 | 3.0 | 0.01 | 0.10 | 0.10 | 86 | 1009.7 |
| 20260509191734 | 58 | 5 | 0.0 | 3.0 | 0.01 | 0.10 | 0.10 | 86 | 1009.9 |
| 20260509191319 | 58 | 5 | 1.0 | 4.0 | 0.01 | 0.10 | 0.10 | 86 | 1010.1 |
| 20260509190721 | 58 | 5 | 1.0 | 4.0 | 0.01 | 0.10 | 0.10 | 87 | 1010.4 |
| 20260509190703 | 57 | 5 | 1.0 | 4.0 | 0.01 | 0.10 | 0.10 | 86 | 1010.3 |
| 20260509185708 | 57 | 331 | 0.0 | 3.0 | 0.01 | 0.10 | 0.10 | 86 | 1010.5 |
| 20260509185204 | 57 | 330 | 1.0 | 3.0 | 0.00 | 0.09 | 0.09 | 85 | 1010.7 |
| 20260509184658 | 57 | 330 | 0.0 | 3.0 | 0.00 | 0.09 | 0.09 | 84 | 1010.7 |
| 20260509184151 | 57 | 330 | 0.0 | 3.0 | 0.00 | 0.09 | 0.09 | 86 | 1010.8 |
| 20260509183647 | 57 | 330 | 1.0 | 3.0 | 0.00 | 0.09 | 0.09 | 84 | 1010.7 |
| 20260509183140 | 57 | 330 | 1.0 | 4.0 | 0.00 | 0.09 | 0.09 | 84 | 1010.8 |
| 20260509182634 | 57 | 330 | 1.0 | 4.0 | 0.00 | 0.09 | 0.09 | 84 | 1010.8 |
| 20260509182128 | 57 | 330 | 2.0 | 5.0 | 0.00 | 0.09 | 0.09 | 84 | 1010.9 |
| 20260509182112 | 57 | 329 | 2.0 | 5.0 | 0.00 | 0.09 | 0.09 | 84 | 1011.0 |
| 20260509181129 | 57 | 325 | 2.0 | 5.0 | 0.00 | 0.09 | 0.09 | 84 | 1011.1 |
| 20260509180610 | 57 | 323 | 2.0 | 4.0 | 0.00 | 0.09 | 0.09 | 83 | 1011.1 |
| 20260509180117 | 57 | 321 | 2.0 | 5.0 | 0.00 | 0.09 | 0.09 | 84 | 1011.2 |
| 20260509175607 | 57 | 348 | 1.0 | 5.0 | 0.00 | 0.09 | 0.09 | 84 | 1011.2 |
| 20260509175104 | 57 | 355 | 1.0 | 4.0 | 0.00 | 0.09 | 0.09 | 84 | 1011.2 |
| 20260509174823 | 57 | 355 | 2.0 | 5.0 | 0.00 | 0.09 | 0.09 | 83 | 1011.3 |
| 20260509174105 | 57 | 355 | 2.0 | 6.0 | 0.00 | 0.09 | 0.09 | 83 | 1011.1 |
| 20260509173604 | 57 | 336 | 2.0 | 6.0 | 0.00 | 0.09 | 0.09 | 83 | 1011.3 |
| 20260509173101 | 58 | 336 | 2.0 | 5.0 | 0.00 | 0.09 | 0.09 | 83 | 1011.2 |
| 20260509172602 | 58 | 227 | 1.0 | 3.0 | 0.00 | 0.09 | 0.09 | 85 | 1011.2 |
| 20260509172101 | 57 | 225 | 0.0 | 3.0 | 0.00 | 0.09 | 0.09 | 86 | 1011.2 |
| 20260509171604 | 57 | 225 | 0.0 | 3.0 | 0.00 | 0.09 | 0.09 | 85 | 1011.3 |
| 20260509171100 | 57 | 225 | 0.0 | 2.0 | 0.00 | 0.09 | 0.09 | 85 | 1011.3 |
| 20260509170558 | 57 | 225 | 1.0 | 3.0 | 0.00 | 0.09 | 0.09 | 84 | 1011.5 |
| 20260509165555 | 58 | 225 | 1.0 | 4.0 | 0.00 | 0.09 | 0.09 | 84 | 1011.3 |
| 20260509165056 | 58 | 219 | 1.0 | 3.0 | 0.01 | 0.09 | 0.09 | 82 | 1011.3 |
| 20260509164559 | 58 | 219 | 1.0 | 3.0 | 0.01 | 0.09 | 0.09 | 83 | 1011.3 |
| 20260509164058 | 59 | 219 | 1.0 | 2.0 | 0.01 | 0.09 | 0.09 | 83 | 1011.3 |
| 20260509163556 | 59 | 219 | 1.0 | 2.0 | 0.01 | 0.09 | 0.09 | 82 | 1011.3 |
| 20260509163328 | 59 | 219 | 1.0 | 3.0 | 0.02 | 0.09 | 0.09 | 82 | 1011.2 |
| 20260509162550 | 59 | 219 | 0.0 | 3.0 | 0.02 | 0.09 | 0.09 | 83 | 1011.1 |
| 20260509162044 | 59 | 219 | 0.0 | 3.0 | 0.03 | 0.09 | 0.09 | 84 | 1011.0 |
| 20260509161800 | 58 | 219 | 0.0 | 1.0 | 0.04 | 0.09 | 0.09 | 83 | 1010.8 |
| 20260509161031 | 58 | 219 | 0.0 | 1.0 | 0.04 | 0.09 | 0.09 | 83 | 1010.8 |
| 20260509160527 | 57 | 219 | 0.0 | 1.0 | 0.05 | 0.09 | 0.09 | 84 | 1010.9 |
| 20260509160020 | 57 | 219 | 0.0 | 3.0 | 0.05 | 0.09 | 0.09 | 87 | 1011.1 |
| 20260509155514 | 57 | 219 | 1.0 | 3.0 | 0.06 | 0.09 | 0.09 | 89 | 1011.2 |
| 20260509155228 | 57 | 218 | 1.0 | 3.0 | 0.05 | 0.08 | 0.08 | 89 | 1011.2 |
| 20260509154502 | 57 | 218 | 1.0 | 3.0 | 0.06 | 0.08 | 0.08 | 89 | 1011.3 |
| 20260509153954 | 57 | 217 | 1.0 | 3.0 | 0.06 | 0.08 | 0.08 | 89 | 1011.5 |
| 20260509153938 | 57 | 217 | 0.0 | 3.0 | 0.05 | 0.07 | 0.07 | 89 | 1011.8 |
| 20260509152943 | 57 | 216 | 1.0 | 3.0 | 0.06 | 0.07 | 0.07 | 89 | 1011.8 |
| 20260509152437 | 57 | 216 | 1.0 | 3.0 | 0.05 | 0.06 | 0.06 | 88 | 1011.9 |
| 20260509151931 | 58 | 215 | 1.0 | 3.0 | 0.06 | 0.06 | 0.06 | 88 | 1012.1 |
| 20260509151428 | 58 | 215 | 0.0 | 3.0 | 0.05 | 0.05 | 0.05 | 88 | 1012.1 |
| 20260509150919 | 58 | 215 | 1.0 | 4.0 | 0.05 | 0.05 | 0.05 | 87 | 1012.0 |
| 20260509150413 | 58 | 215 | 1.0 | 4.0 | 0.04 | 0.04 | 0.04 | 87 | 1012.1 |
| 20260509145907 | 58 | 232 | 1.0 | 4.0 | 0.04 | 0.04 | 0.04 | 87 | 1012.0 |
| 20260509145401 | 58 | 232 | 1.0 | 7.0 | 0.03 | 0.03 | 0.03 | 86 | 1011.9 |
| 20260509144857 | 58 | 215 | 1.0 | 7.0 | 0.03 | 0.03 | 0.03 | 86 | 1012.0 |
| 20260509144351 | 58 | 206 | 2.0 | 6.0 | 0.02 | 0.02 | 0.02 | 86 | 1011.7 |
| 20260509143843 | 58 | 207 | 2.0 | 6.0 | 0.02 | 0.02 | 0.02 | 85 | 1011.7 |
| 20260509143339 | 58 | 188 | 2.0 | 5.0 | 0.02 | 0.02 | 0.02 | 84 | 1011.7 |
| 20260509142831 | 58 | 198 | 2.0 | 6.0 | 0.01 | 0.01 | 0.01 | 82 | 1011.7 |
| 20260509142328 | 59 | 196 | 3.0 | 7.0 | 0.00 | 0.00 | 0.00 | 81 | 1011.6 |
| 20260509142307 | 59 | 236 | 3.0 | 7.0 | 0.00 | 0.00 | 0.00 | 80 | 1011.5 |
| 20260509141332 | 59 | 212 | 3.0 | 7.0 | 0.00 | 0.00 | 0.00 | 79 | 1011.4 |
| 20260509141053 | 60 | 239 | 3.0 | 10.0 | 0.00 | 0.00 | 0.00 | 78 | 1011.4 |
| 20260509140817 | 60 | 187 | 4.0 | 10.0 | 0.00 | 0.00 | 0.00 | 77 | 1011.4 |
| 20260509135826 | 60 | 200 | 3.0 | 7.0 | 0.00 | 0.00 | 0.00 | 77 | 1011.3 |
| 20260509135605 | 60 | 190 | 3.0 | 8.0 | 0.00 | 0.00 | 0.00 | 77 | 1011.3 |
| 20260509135430 | 60 | 216 | 3.0 | 8.0 | 0.00 | 0.00 | 0.00 | 77 | 1011.3 |
| 20260509134559 | 60 | 167 | 4.0 | 8.0 | 0.00 | 0.00 | 0.00 | 77 | 1011.2 |
| 20260509133831 | 60 | 201 | 3.0 | 8.0 | 0.00 | 0.00 | 0.00 | 76 | 1011.0 |
| 20260509133328 | 60 | 182 | 3.0 | 7.0 | 0.00 | 0.00 | 0.00 | 77 | 1011.0 |
| 20260509133306 | 60 | 180 | 3.0 | 9.0 | 0.00 | 0.00 | 0.00 | 77 | 1011.0 |
| 20260509132331 | 60 | 164 | 4.0 | 9.0 | 0.00 | 0.00 | 0.00 | 76 | 1011.1 |
| 20260509132056 | 60 | 228 | 5.0 | 9.0 | 0.00 | 0.00 | 0.00 | 76 | 1011.1 |
| 20260509131328 | 60 | 175 | 5.0 | 9.0 | 0.00 | 0.00 | 0.00 | 76 | 1011.1 |
| 20260509130828 | 60 | 190 | 4.0 | 8.0 | 0.00 | 0.00 | 0.00 | 76 | 1011.1 |
| 20260509130543 | 60 | 211 | 3.0 | 6.0 | 0.00 | 0.00 | 0.00 | 76 | 1011.1 |
| 20260509130036 | 59 | 193 | 3.0 | 6.0 | 0.00 | 0.00 | 0.00 | 77 | 1011.1 |
| 20260509125311 | 59 | 225 | 3.0 | 9.0 | 0.00 | 0.00 | 0.00 | 78 | 1011.1 |
| 20260509124804 | 59 | 145 | 3.0 | 9.0 | 0.00 | 0.00 | 0.00 | 78 | 1011.1 |
| 20260509124253 | 58 | 91 | 2.0 | 8.0 | 0.00 | 0.00 | 0.00 | 79 | 1011.0 |
| 20260509124014 | 58 | 144 | 2.0 | 8.0 | 0.00 | 0.00 | 0.00 | 79 | 1010.9 |
| 20260509123245 | 58 | 150 | 1.0 | 5.0 | 0.00 | 0.00 | 0.00 | 79 | 1011.0 |
| 20260509122748 | 58 | 186 | 0.0 | 3.0 | 0.00 | 0.00 | 0.00 | 80 | 1011.0 |
| 20260509122249 | 58 | 188 | 0.0 | 1.0 | 0.00 | 0.00 | 0.00 | 81 | 1011.2 |
| 20260509121745 | 57 | 188 | 0.0 | 1.0 | 0.00 | 0.00 | 0.00 | 82 | 1011.2 |
| 20260509121244 | 57 | 188 | 0.0 | 0.0 | 0.00 | 0.00 | 0.00 | 83 | 1011.1 |
| 20260509120754 | 56 | 188 | 0.0 | 0.0 | 0.00 | 0.00 | 0.00 | 84 | 1011.1 |
| 20260509120238 | 56 | 188 | 0.0 | 0.0 | 0.00 | 0.00 | 0.00 | 84 | 1011.1 |
| 20260509115741 | 56 | 188 | 0.0 | 2.0 | 0.00 | 0.00 | 0.00 | 84 | 1011.0 |
| 20260509115238 | 56 | 188 | 0.0 | 2.0 | 0.00 | 0.00 | 0.00 | 84 | 1011.0 |
| 20260509114741 | 56 | 188 | 0.0 | 1.0 | 0.00 | 0.00 | 0.00 | 84 | 1011.2 |
| 20260509114237 | 56 | 188 | 0.0 | 0.0 | 0.00 | 0.00 | 0.00 | 84 | 1011.1 |
| 20260509114005 | 55 | 188 | 0.0 | 0.0 | 0.00 | 0.00 | 0.00 | 84 | 1011.0 |
| 20260509113238 | 55 | 188 | 0.0 | 0.0 | 0.00 | 0.00 | 0.00 | 84 | 1010.9 |
| 20260509112736 | 55 | 188 | 0.0 | 0.0 | 0.00 | 0.00 | 0.00 | 84 | 1010.9 |
| 20260509112715 | 55 | 188 | 0.0 | 0.0 | 0.00 | 0.00 | 0.00 | 84 | 1010.9 |
| 20260509111956 | 55 | 188 | 0.0 | 0.0 | 0.00 | 0.00 | 0.00 | 84 | 1011.0 |
| 20260509111235 | 55 | 188 | 0.0 | 1.0 | 0.00 | 0.00 | 0.00 | 84 | 1011.0 |
| 20260509110737 | 55 | 188 | 0.0 | 1.0 | 0.00 | 0.00 | 0.00 | 84 | 1011.0 |
| 20260509110459 | 55 | 188 | 0.0 | 2.0 | 0.00 | 0.00 | 0.00 | 84 | 1010.9 |
| 20260509110004 | 55 | 188 | 0.0 | 2.0 | 0.00 | 0.00 | 0.00 | 84 | 1010.8 |
| 20260509105239 | 54 | 188 | 0.0 | 0.0 | 0.00 | 0.00 | 0.00 | 85 | 1010.8 |
| 20260509104742 | 54 | 188 | 0.0 | 0.0 | 0.00 | 0.00 | 0.00 | 85 | 1010.8 |
| 20260509104242 | 54 | 188 | 0.0 | 2.0 | 0.00 | 0.00 | 0.00 | 85 | 1010.8 |
| 20260509103741 | 54 | 188 | 0.0 | 2.0 | 0.00 | 0.00 | 0.00 | 85 | 1010.7 |
| 20260509103239 | 54 | 188 | 0.0 | 1.0 | 0.00 | 0.00 | 0.00 | 85 | 1010.9 |
| 20260509102740 | 53 | 190 | 0.0 | 0.0 | 0.00 | 0.00 | 0.00 | 85 | 1010.7 |
| 20260509102514 | 54 | 190 | 0.0 | 0.0 | 0.00 | 0.00 | 0.00 | 85 | 1010.7 |
| 20260509101739 | 54 | 190 | 0.0 | 0.0 | 0.00 | 0.00 | 0.00 | 84 | 1010.7 |
| 20260509101235 | 54 | 190 | 0.0 | 0.0 | 0.00 | 0.00 | 0.00 | 85 | 1010.6 |
| 20260509100737 | 54 | 190 | 0.0 | 0.0 | 0.00 | 0.00 | 0.00 | 84 | 1010.6 |
| 20260509100235 | 54 | 190 | 0.0 | 2.0 | 0.00 | 0.00 | 0.00 | 84 | 1010.6 |
| 20260509100009 | 54 | 190 | 0.0 | 2.0 | 0.00 | 0.00 | 0.00 | 85 | 1010.5 |
| 20260509095235 | 54 | 190 | 0.0 | 1.0 | 0.00 | 0.00 | 0.00 | 84 | 1010.4 |
| 20260509094735 | 54 | 190 | 0.0 | 2.0 | 0.00 | 0.00 | 0.00 | 84 | 1010.5 |
| 20260509094235 | 53 | 190 | 0.0 | 2.0 | 0.00 | 0.00 | 0.00 | 84 | 1010.5 |
| 20260509093736 | 53 | 190 | 0.0 | 0.0 | 0.00 | 0.00 | 0.00 | 84 | 1010.5 |
| 20260509093232 | 53 | 190 | 0.0 | 0.0 | 0.00 | 0.00 | 0.00 | 84 | 1010.6 |
| 20260509092736 | 54 | 190 | 0.0 | 0.0 | 0.00 | 0.00 | 0.00 | 84 | 1010.7 |
| 20260509092232 | 54 | 190 | 0.0 | 2.0 | 0.00 | 0.00 | 0.00 | 84 | 1010.7 |
| 20260509091733 | 54 | 190 | 0.0 | 2.0 | 0.00 | 0.00 | 0.00 | 84 | 1010.7 |
| 20260509091228 | 53 | 190 | 0.0 | 1.0 | 0.00 | 0.00 | 0.00 | 83 | 1010.7 |
| 20260509090726 | 53 | 190 | 0.0 | 0.0 | 0.00 | 0.00 | 0.00 | 83 | 1010.7 |
| 20260509090238 | 54 | 190 | 0.0 | 0.0 | 0.00 | 0.00 | 0.00 | 83 | 1010.7 |
| 20260509085948 | 54 | 190 | 0.0 | 1.0 | 0.00 | 0.00 | 0.00 | 83 | 1010.7 |
| 20260509085219 | 53 | 190 | 0.0 | 1.0 | 0.00 | 0.00 | 0.00 | 83 | 1010.7 |
| 20260509084723 | 54 | 190 | 0.0 | 1.0 | 0.00 | 0.00 | 0.00 | 83 | 1010.9 |
| 20260509084225 | 54 | 192 | 0.0 | 2.0 | 0.00 | 0.00 | 0.00 | 83 | 1010.8 |
| 20260509083718 | 53 | 192 | 0.0 | 2.0 | 0.00 | 0.00 | 0.00 | 82 | 1010.9 |
| 20260509083210 | 53 | 192 | 0.0 | 2.0 | 0.00 | 0.00 | 0.00 | 82 | 1010.9 |
| 20260509082718 | 54 | 192 | 0.0 | 1.0 | 0.00 | 0.00 | 0.00 | 82 | 1010.9 |
| 20260509082158 | 54 | 192 | 0.0 | 3.0 | 0.00 | 0.00 | 0.00 | 81 | 1011.0 |
| 20260509081648 | 53 | 192 | 1.0 | 3.0 | 0.00 | 0.00 | 0.00 | 81 | 1011.0 |
| 20260509081145 | 53 | 193 | 1.0 | 4.0 | 0.00 | 0.00 | 0.00 | 81 | 1011.0 |
| 20260509081127 | 53 | 193 | 0.0 | 4.0 | 0.00 | 0.00 | 0.00 | 81 | 1011.0 |
| 20260509080134 | 53 | 212 | 0.0 | 2.0 | 0.00 | 0.00 | 0.00 | 80 | 1011.0 |
| 20260509075627 | 53 | 211 | 0.0 | 2.0 | 0.00 | 0.00 | 0.00 | 80 | 1011.0 |
| 20260509075123 | 53 | 211 | 1.0 | 3.0 | 0.00 | 0.00 | 0.00 | 80 | 1011.1 |
| 20260509074619 | 53 | 211 | 1.0 | 4.0 | 0.00 | 0.00 | 0.00 | 80 | 1011.2 |
| 20260509074111 | 53 | 213 | 2.0 | 4.0 | 0.00 | 0.00 | 0.00 | 79 | 1011.2 |
| 20260509073605 | 53 | 129 | 1.0 | 4.0 | 0.00 | 0.00 | 0.00 | 79 | 1011.3 |
| 20260509073324 | 53 | 128 | 2.0 | 4.0 | 0.00 | 0.00 | 0.00 | 79 | 1011.3 |
| 20260509072553 | 53 | 128 | 2.0 | 4.0 | 0.00 | 0.00 | 0.00 | 79 | 1011.3 |
| 20260509072539 | 53 | 128 | 2.0 | 4.0 | 0.00 | 0.00 | 0.00 | 79 | 1011.3 |
| 20260509071540 | 53 | 106 | 2.0 | 8.0 | 0.00 | 0.00 | 0.00 | 79 | 1011.1 |
| 20260509071034 | 53 | 151 | 3.0 | 8.0 | 0.00 | 0.00 | 0.00 | 79 | 1011.0 |
| 20260509070528 | 53 | 125 | 3.0 | 7.0 | 0.00 | 0.00 | 0.00 | 79 | 1010.8 |
| 20260509070244 | 53 | 93 | 3.0 | 7.0 | 0.00 | 0.00 | 0.00 | 79 | 1010.9 |
| 20260509065516 | 53 | 128 | 3.0 | 7.0 | 0.00 | 0.00 | 0.00 | 79 | 1010.9 |
| 20260509065011 | 53 | 140 | 3.0 | 7.0 | 0.00 | 0.00 | 0.00 | 78 | 1010.9 |
| 20260509064506 | 53 | 146 | 3.0 | 6.0 | 0.00 | 0.00 | 0.00 | 78 | 1011.0 |
| 20260509063959 | 53 | 140 | 2.0 | 6.0 | 0.00 | 0.00 | 0.00 | 78 | 1011.1 |
| 20260509063724 | 53 | 125 | 2.0 | 6.0 | 0.00 | 0.00 | 0.00 | 78 | 1011.1 |
| 20260509062948 | 53 | 124 | 2.0 | 6.0 | 0.00 | 0.00 | 0.00 | 78 | 1011.3 |
| 20260509062453 | 53 | 113 | 2.0 | 4.0 | 0.00 | 0.00 | 0.00 | 78 | 1011.2 |
| 20260509061934 | 53 | 140 | 1.0 | 4.0 | 0.00 | 0.00 | 0.00 | 78 | 1011.3 |
| 20260509061428 | 53 | 145 | 1.0 | 3.0 | 0.00 | 0.00 | 0.00 | 78 | 1011.4 |
| 20260509060924 | 53 | 145 | 1.0 | 5.0 | 0.00 | 0.00 | 0.00 | 78 | 1011.5 |
| 20260509060416 | 53 | 145 | 1.0 | 5.0 | 0.00 | 0.00 | 0.00 | 78 | 1011.6 |
| 20260509055915 | 53 | 153 | 0.0 | 1.0 | 0.00 | 0.00 | 0.00 | 77 | 1011.8 |
| 20260509055413 | 54 | 153 | 0.0 | 3.0 | 0.00 | 0.00 | 0.00 | 77 | 1011.7 |
| 20260509055356 | 54 | 153 | 1.0 | 3.0 | 0.00 | 0.00 | 0.00 | 76 | 1011.8 |
| 20260509054643 | 54 | 153 | 0.0 | 2.0 | 0.00 | 0.00 | 0.00 | 76 | 1011.8 |
| 20260509053908 | 55 | 153 | 0.0 | 2.0 | 0.00 | 0.00 | 0.00 | 75 | 1011.9 |
| 20260509053408 | 55 | 153 | 0.0 | 2.0 | 0.00 | 0.00 | 0.00 | 74 | 1011.9 |
| 20260509053133 | 56 | 153 | 1.0 | 5.0 | 0.00 | 0.00 | 0.00 | 73 | 1012.0 |
| 20260509052408 | 56 | 153 | 2.0 | 6.0 | 0.00 | 0.00 | 0.00 | 72 | 1011.9 |
| 20260509051904 | 57 | 161 | 3.0 | 9.0 | 0.00 | 0.00 | 0.00 | 71 | 1012.0 |
| 20260509051402 | 57 | 148 | 4.0 | 10.0 | 0.00 | 0.00 | 0.00 | 71 | 1012.0 |
| 20260509050902 | 57 | 221 | 3.0 | 10.0 | 0.00 | 0.00 | 0.00 | 72 | 1012.1 |
| 20260509050622 | 57 | 160 | 2.0 | 7.0 | 0.00 | 0.00 | 0.00 | 72 | 1012.1 |
| 20260509045902 | 57 | 136 | 2.0 | 4.0 | 0.00 | 0.00 | 0.00 | 71 | 1012.1 |
| 20260509045619 | 57 | 136 | 2.0 | 5.0 | 0.00 | 0.00 | 0.00 | 71 | 1012.1 |
| 20260509045125 | 57 | 134 | 2.0 | 5.0 | 0.00 | 0.00 | 0.00 | 72 | 1012.0 |
| 20260509044358 | 57 | 136 | 2.0 | 4.0 | 0.00 | 0.00 | 0.00 | 72 | 1012.1 |
| 20260509044124 | 57 | 135 | 2.0 | 7.0 | 0.00 | 0.00 | 0.00 | 73 | 1012.2 |
| 20260509043358 | 56 | 134 | 2.0 | 7.0 | 0.00 | 0.00 | 0.00 | 74 | 1012.2 |
| 20260509042853 | 56 | 175 | 0.0 | 4.0 | 0.00 | 0.00 | 0.00 | 76 | 1012.2 |
| 20260509042617 | 55 | 235 | 0.0 | 0.0 | 0.00 | 0.00 | 0.00 | 77 | 1012.2 |
| 20260509041841 | 55 | 236 | 0.0 | 1.0 | 0.00 | 0.00 | 0.00 | 76 | 1012.1 |
| 20260509041335 | 54 | 243 | 0.0 | 1.0 | 0.00 | 0.00 | 0.00 | 76 | 1012.1 |
| 20260509041046 | 54 | 242 | 0.0 | 0.0 | 0.00 | 0.00 | 0.00 | 77 | 1012.2 |
| 20260509040322 | 54 | 242 | 0.0 | 0.0 | 0.00 | 0.00 | 0.00 | 77 | 1012.1 |
| 20260509035815 | 54 | 242 | 0.0 | 0.0 | 0.00 | 0.00 | 0.00 | 76 | 1012.1 |
| 20260509035310 | 54 | 242 | 0.0 | 2.0 | 0.00 | 0.00 | 0.00 | 76 | 1012.2 |
| 20260509034803 | 54 | 242 | 1.0 | 2.0 | 0.00 | 0.00 | 0.00 | 76 | 1012.1 |
| 20260509034259 | 54 | 242 | 1.0 | 3.0 | 0.00 | 0.00 | 0.00 | 75 | 1012.1 |
| 20260509033755 | 54 | 242 | 1.0 | 3.0 | 0.00 | 0.00 | 0.00 | 75 | 1012.3 |
| 20260509033255 | 54 | 243 | 0.0 | 0.0 | 0.00 | 0.00 | 0.00 | 74 | 1012.2 |
| 20260509032754 | 54 | 243 | 0.0 | 0.0 | 0.00 | 0.00 | 0.00 | 73 | 1012.0 |
| 20260509032254 | 55 | 243 | 0.0 | 0.0 | 0.00 | 0.00 | 0.00 | 72 | 1012.2 |
| 20260509031755 | 55 | 242 | 0.0 | 0.0 | 0.00 | 0.00 | 0.00 | 72 | 1012.2 |
| 20260509031255 | 56 | 242 | 0.0 | 0.0 | 0.00 | 0.00 | 0.00 | 71 | 1012.4 |